Theta_e
318 319 319 319 317 318 320 319 322 322 322 322 324 326 327 328 328 328 328 328 328 327 328 328 326 326 326 326 323 315 310 307 312 312 312 313 314 315 315 315 319 319 315
317 318 319 319 318 317 320 319 321 321 320 320 323 326 326 327 327 327 326 324 324 326 326 326 326 326 326 324 321 314 309 309 313 316 314 315 315 315 316 317 316 312 309
314 316 316 318 318 317 319 320 320 321 320 320 320 323 325 326 326 326 326 323 322 321 322 322 323 323 322 321 320 314 315 312 314 314 315 315 315 316 316 315 310 306 303
317 317 317 315 317 317 318 320 320 321 320 320 320 320 320 319 318 317 317 316 317 317 315 316 316 316 317 318 319 320 316 315 316 315 316 314 312 311 311 310 305 304 303
319 318 318 316 315 316 317 319 320 319 320 320 320 320 320 320 320 321 321 321 321 321 319 315 316 321 319 319 319 320 318 317 318 315 314 311 308 307 308 309 306 306 304
320 319 318 315 315 315 316 317 319 318 320 320 319 319 319 319 318 318 318 319 319 320 320 319 319 318 318 318 317 317 318 319 319 315 312 312 311 309 308 307 307 303 302
320 319 318 315 315 316 316 315 317 318 318 319 319 319 319 318 317 316 316 315 315 314 314 314 315 314 312 312 313 314 316 318 317 317 317 315 314 314 310 307 305 303 301
319 319 318 314 315 315 315 314 314 316 317 317 318 317 316 315 314 310 309 309 309 307 306 306 306 306 304 303 308 310 312 314 315 315 315 315 315 313 312 309 306 302 300
318 320 319 315 314 314 315 315 313 313 314 314 315 314 314 313 311 309 307 304 303 301 299 298 298 299 299 299 301 303 307 309 311 311 310 308 306 307 303 302 299 298 300
317 320 319 318 313 314 315 315 313 312 312 311 311 312 312 312 313 311 309 305 302 301 302 302 301 302 300 299 298 299 299 299 300 300 301 301 299 297 296 298 298 298 298
316 319 319 320 315 312 315 315 314 314 313 312 312 311 311 312 312 312 311 310 310 309 309 309 308 307 305 305 304 304 304 301 299 298 297 297 296 295 296 296 297 297 297
316 318 319 320 317 314 313 314 314 313 312 311 309 308 308 309 310 310 310 310 310 310 311 310 309 308 307 307 307 307 306 304 302 298 296 296 296 295 295 295 296 297 297
316 317 318 319 319 316 314 313 314 313 312 311 310 309 309 309 310 310 310 310 309 310 310 310 310 309 309 307 306 306 305 305 304 302 300 298 296 295 294 294 294 295 296
317 317 318 319 320 318 317 312 313 313 313 313 312 312 314 314 313 311 311 309 308 308 308 309 308 308 308 308 307 307 306 304 304 303 302 301 299 298 295 293 294 295 296
317 318 318 319 319 319 319 316 313 313 314 315 315 316 315 315 317 316 315 314 313 311 309 307 307 306 306 306 307 306 306 305 303 302 300 300 299 298 298 298 295 296 297
317 317 318 319 320 320 320 320 318 315 315 316 317 318 317 317 317 317 317 317 317 316 315 314 311 309 309 310 310 307 306 305 304 302 301 299 298 298 297 297 298 297 298
317 318 318 319 319 320 321 321 321 320 319 317 317 317 317 318 318 318 318 319 318 318 316 315 314 314 316 315 314 311 308 309 304 301 298 297 297 296 296 297 297 297 297
318 318 318 319 319 320 321 321 321 321 321 322 322 322 322 322 321 320 320 320 318 315 316 315 315 314 314 313 310 309 308 305 300 298 297 296 295 293 294 295 295 296 297
318 318 319 319 319 320 320 321 321 322 322 322 320 318 319 321 321 320 314 315 317 315 315 316 312 311 311 308 304 302 299 298 298 298 297 296 295 293 293 293 294 295 296
318 319 319 319 318 319 319 320 321 321 321 321 320 319 318 318 317 316 314 314 315 314 312 310 308 304 302 300 299 299 298 298 297 297 297 297 297 296 295 295 295 296 296
317 318 319 319 317 318 319 319 319 320 320 319 317 317 317 317 310 305 304 303 304 303 301 300 300 300 299 299 299 298 298 298 298 298 298 298 298 298 297 296 296 297 296
317 317 317 317 317 317 318 319 319 319 314 311 307 305 306 306 306 307 307 306 305 302 302 300 299 298 299 298 298 298 297 297 297 296 296 296 297 297 297 296 296 296 296
317 317 317 318 319 319 319 317 313 308 305 305 305 306 308 307 306 305 304 305 303 303 301 299 298 298 297 297 297 297 296 296 295 295 295 295 296 296 296 296 296 296 295
319 319 318 316 316 314 311 309 308 307 307 307 307 308 307 305 302 299 298 298 298 298 298 298 298 297 297 297 297 296 295 295 295 294 294 295 295 295 294 294 294 293 293
319 317 316 316 315 313 311 310 310 310 308 307 304 301 299 297 298 299 299 299 298 298 297 297 296 295 294 294 294 295 296 296 295 295 294 294 294 294 294 293 292 292 292
318 318 318 318 317 315 311 307 305 303 301 301 300 300 300 300 299 298 298 297 297 296 295 295 294 294 294 294 293 293 293 294 294 295 294 294 293 293 292 292 292 291 291
Wind_Speed
8 8 7 5 5 5 9 10 10 8 9 12 13 11 14 15 17 18 18 21 19 21 18 18 22 24 20 17 18 9 9 10 16 9 16 16 14 13 13 12 9 9 11
8 9 7 7 5 6 8 11 11 15 15 14 14 16 17 18 21 22 22 21 24 25 22 22 21 18 19 19 18 9 13 17 28 19 17 14 13 14 12 11 11 12 13
10 9 8 8 7 7 7 10 11 13 15 17 18 18 20 20 19 18 17 16 17 21 21 23 22 21 20 17 16 10 10 21 22 26 15 14 13 14 15 14 15 14 12
12 10 10 9 9 8 9 9 8 10 12 15 16 18 19 20 19 18 18 18 18 17 16 17 18 16 15 13 11 12 14 20 18 22 19 18 17 16 16 18 18 16 15
15 13 10 8 10 10 10 10 10 10 13 15 17 17 16 15 15 15 15 16 17 17 16 16 14 13 12 10 8 9 16 17 18 20 17 13 16 16 18 18 20 18 17
18 17 13 11 11 11 10 11 12 12 12 13 14 14 13 12 11 9 10 12 13 13 14 13 12 11 10 8 7 7 10 13 17 20 18 21 22 21 20 19 19 14 7
21 19 16 14 14 12 12 12 13 13 13 13 13 12 10 9 7 6 6 8 10 10 10 11 11 9 8 7 7 7 10 9 10 18 23 24 23 24 23 21 23 24 15
21 21 18 18 17 15 15 15 15 15 14 13 12 10 8 7 7 7 7 8 9 9 9 9 7 8 8 8 9 9 10 11 12 14 15 16 17 16 21 21 21 20 17
23 23 21 19 19 17 17 17 17 17 17 15 13 11 9 8 9 8 7 9 9 9 10 10 9 9 8 8 7 8 8 8 9 10 12 12 12 14 15 17 18 18 10
26 26 24 21 21 20 19 18 17 16 14 12 12 12 11 10 12 10 9 8 8 8 7 7 7 6 6 5 5 5 4 5 6 8 9 11 12 13 15 17 17 20 12
29 28 27 24 23 22 20 19 17 15 14 14 14 14 14 14 13 14 13 11 9 10 11 11 11 10 10 9 10 10 9 9 10 12 13 14 15 16 19 20 21 23 24
33 31 30 27 26 24 23 21 19 18 17 17 16 16 16 16 16 15 15 14 14 16 16 13 11 12 13 14 16 16 16 16 17 18 18 21 22 23 23 22 22 23 23
35 34 33 30 29 27 26 25 22 21 20 19 18 18 19 18 19 20 20 20 20 22 21 20 18 18 17 18 18 18 19 21 22 23 26 30 29 27 24 24 24 24 24
37 36 36 34 33 32 30 30 29 27 26 25 25 26 27 25 25 25 26 26 27 27 28 26 26 26 25 25 23 22 24 26 28 31 33 32 31 28 28 29 29 30 29
38 35 35 36 37 36 36 35 35 34 34 34 35 35 33 33 34 31 29 29 30 28 26 27 29 28 27 25 27 26 26 27 29 31 34 33 32 31 34 32 33 28 26
34 34 34 32 34 33 34 35 38 38 38 39 39 36 36 35 34 31 27 20 17 16 20 26 25 22 22 23 24 26 22 22 28 28 30 30 29 27 27 25 29 27 27
39 38 36 34 31 31 29 28 26 40 41 42 41 43 43 42 35 29 22 18 15 14 19 20 18 17 19 17 16 18 22 21 22 20 22 23 25 26 26 24 24 24 26
40 38 37 38 34 31 31 31 30 26 24 37 40 42 41 35 35 34 23 20 18 19 20 20 18 15 13 15 18 16 17 18 16 15 17 19 20 22 21 21 22 23 24
38 38 38 35 36 35 34 32 31 28 25 26 19 12 7 8 14 16 10 12 14 12 13 11 9 7 6 10 9 9 8 10 13 14 15 16 19 19 21 21 21 23 24
38 42 42 35 32 32 29 28 27 27 22 15 8 5 6 7 9 10 7 2 6 5 3 4 8 6 8 6 6 7 10 12 12 13 15 17 18 18 19 17 17 17 16
29 28 40 30 29 30 29 26 24 24 19 13 12 13 15 20 23 23 24 22 19 18 16 11 12 11 12 11 10 10 11 13 16 18 18 17 17 17 17 17 15 15 14
29 30 38 31 30 28 26 24 19 19 26 30 31 31 30 30 28 27 26 22 19 16 21 13 13 15 14 14 14 14 15 17 18 18 19 18 17 16 16 16 14 12 10
27 26 24 23 22 24 25 25 30 35 35 34 33 30 27 26 26 25 22 30 19 19 21 16 18 17 16 17 17 17 17 18 18 18 18 17 15 14 15 14 13 15 19
30 32 32 29 30 31 33 33 34 33 31 31 27 28 28 27 25 32 29 31 28 24 22 20 19 19 19 18 17 16 14 13 14 15 16 16 15 15 15 14 14 14 17
32 37 41 41 35 33 32 30 31 34 33 36 36 29 32 31 30 30 28 27 26 25 22 20 19 18 20 19 18 16 14 14 15 14 14 13 13 13 14 14 16 16 18
33 36 35 35 39 36 30 28 30 33 33 36 39 36 33 31 30 31 30 26 25 23 20 20 19 18 19 20 22 21 20 18 16 16 15 14 13 13 13 18 21 20 19
Wind_Direction
191 175 165 156 150 113 97 111 116 107 103 114 125 123 121 122 138 147 138 140 142 158 161 161 167 169 170 176 171 158 149 157 126 133 147 158 160 166 168 176 190 192 180
197 183 176 162 157 152 111 110 114 118 106 106 125 127 125 123 126 124 127 124 123 131 138 144 146 153 163 168 171 167 156 162 148 140 150 162 176 177 181 179 168 165 166
189 186 177 177 173 162 141 117 120 122 116 110 109 120 126 127 124 122 122 118 119 123 131 135 140 152 155 163 170 156 155 163 158 158 157 167 160 169 168 169 167 165 165
192 191 185 183 183 173 168 147 129 138 131 132 125 116 116 119 120 121 124 126 124 126 132 138 138 142 145 155 169 180 172 170 170 169 165 167 168 171 178 172 168 173 173
198 200 195 184 184 180 173 165 161 146 143 139 134 133 129 128 127 128 127 128 129 129 130 137 146 148 150 153 152 160 182 176 177 175 169 174 182 183 191 189 191 190 194
200 200 193 184 179 182 180 176 168 163 155 156 152 146 142 141 139 143 159 159 157 153 152 154 156 163 168 173 182 200 200 199 195 186 187 195 200 204 202 201 197 190 211
196 194 190 185 178 180 185 182 179 175 172 166 164 165 165 162 158 166 182 181 175 171 175 176 177 180 184 191 192 202 215 225 234 219 208 213 216 220 216 213 213 213 213
198 193 186 183 181 180 180 181 182 184 186 188 188 190 192 187 191 190 188 182 172 163 159 159 165 166 171 173 180 189 201 214 218 215 224 234 238 240 233 237 232 224 225
202 200 193 186 184 184 187 188 188 189 190 194 198 200 201 193 188 182 179 173 166 163 166 169 173 176 177 180 182 187 191 200 217 229 241 251 252 245 236 223 208 198 209
202 205 203 195 191 190 192 190 191 194 199 200 204 209 211 208 199 195 193 187 182 183 190 201 206 207 212 211 218 230 244 265 265 268 266 258 250 238 230 226 230 209 209
203 205 206 204 201 199 196 199 200 201 206 211 218 220 219 213 209 210 211 213 217 224 228 228 231 239 248 257 267 273 280 283 279 270 263 257 249 241 236 233 231 229 224
203 203 205 206 206 205 205 203 204 206 211 216 221 223 222 218 218 221 226 234 236 242 248 258 264 270 276 281 282 286 286 277 273 271 266 260 255 251 249 246 244 245 241
201 203 206 206 207 210 208 209 209 212 218 224 229 235 235 231 232 234 238 242 248 255 261 267 273 281 284 281 278 273 268 268 267 265 266 269 269 273 268 256 250 245 241
193 200 206 207 207 212 212 214 214 214 219 226 232 238 241 243 244 244 245 248 251 255 261 270 276 275 275 276 274 270 265 263 262 263 266 273 276 271 265 260 253 249 242
190 194 199 205 208 210 215 216 218 223 221 222 229 234 237 243 245 251 255 259 261 263 266 267 266 267 269 271 272 269 268 267 264 268 269 272 274 274 271 265 258 248 239
188 189 196 197 203 204 208 217 226 229 230 235 242 246 248 255 264 268 269 270 276 262 251 252 259 265 269 275 282 278 271 278 282 282 279 278 271 265 266 261 263 248 244
192 192 193 195 198 198 202 206 217 230 236 243 248 251 255 261 265 272 277 281 268 249 241 254 259 264 270 276 289 296 299 312 302 294 292 294 291 285 272 263 260 256 252
198 197 191 194 197 199 203 208 215 221 228 241 247 251 254 254 260 267 264 261 244 238 245 253 267 274 292 298 306 313 315 304 305 307 304 302 299 293 282 273 266 260 259
193 199 196 195 198 200 203 207 212 219 225 238 236 247 268 263 255 259 254 244 246 262 265 273 257 289 2 326 329 333 323 326 333 330 325 320 315 306 297 287 278 273 268
196 200 197 195 198 198 199 202 207 212 216 221 210 182 154 114 95 93 109 126 63 70 83 96 82 72 77 62 42 23 9 3 353 345 343 339 332 320 309 301 292 282 275
197 197 198 194 195 200 201 202 205 203 194 149 124 127 130 120 107 103 94 82 78 74 61 44 77 81 82 76 63 47 36 24 13 3 355 348 346 340 334 320 302 285 279
185 192 196 199 193 185 187 187 174 152 131 119 115 115 115 113 108 103 98 88 91 97 93 95 82 81 75 70 60 46 33 22 10 1 353 348 347 344 336 326 322 307 285
167 168 172 168 165 153 146 143 134 126 124 124 126 123 117 112 110 100 104 102 107 98 101 103 92 82 67 57 48 40 36 30 19 11 13 8 2 358 351 341 333 332 325
156 147 135 128 128 125 123 120 121 122 122 124 122 119 114 114 115 114 112 104 102 99 96 90 79 70 61 52 43 36 32 25 20 19 22 25 26 20 11 358 342 334 331
138 134 132 126 119 118 119 125 129 131 131 126 120 119 117 122 116 103 104 106 104 99 90 81 72 64 59 51 43 36 27 21 18 17 18 14 7 355 350 351 350 336 330
130 130 131 129 131 137 131 126 125 128 127 123 129 130 123 119 117 118 115 111 103 96 92 84 79 72 64 57 50 44 41 36 26 16 10 6 1 355 342 339 336 329 321